Poplar Bluff, MO

1:08 PM CST on February 22, 2017 (GMT -0600)
Poplar Bluff Municipal

Weather History for KPOF - June, 2014

Change the Weather History Date:

Friday, June 6, 2014

  Actual Average Record
Temperature  
Mean Temperature 74 °F -  
Max Temperature 81 °F 83 °F 96 °F (1925)
Min Temperature 68 °F 61 °F 50 °F (1928)
Cooling Degree Days 9    
Growing Degree Days 24 (Base 50)    
Moisture  
Dew Point 66 °F    
Average Humidity 80    
Maximum Humidity 90    
Minimum Humidity 64    
Precipitation  
Precipitation 0.00 in - - ()
Sea Level Pressure  
Sea Level Pressure 29.91 in    
Wind  
Wind Speed 3 mph (NE)    
Max Wind Speed 8 mph    
Max Gust Speed -    
Visibility 5 miles    
Events Rain , Thunderstorm    
Averages and records for this station are not official NWS values.
T = Trace of Precipitation, MM = Missing Value Source: NWS Daily Summary

Daily Weather History Graph

Daily Weather History Graph

Search for Another Location

Airport or City:

Trip Planner

Search our weather history database for the weather conditions in past years. The results will help you decide how hot, cold, wet, or windy it might be!

Date:

Astronomy

Jun. 06, 2014 Rise Set
Actual Time 5:42 AM CDT 8:17 PM CDT
Civil Twilight 5:12 AM CDT 8:48 PM CDT
Nautical Twilight 4:34 AM CDT 9:25 PM CDT
Astronomical Twilight 3:52 AM CDT 10:08 PM CDT
Moon 1:46 PM CDT (6/6) 1:24 AM CDT (6/6)
Length of Visible Light 15h 36m
Length of Day
14h 35m
First Quarter, 58% of the Moon is Illuminated
Jun 6
First Quarter
Jun 12
Full
Jun 19
Last Quarter
Jun 27
New
Jul 5
First Quarter

Hourly Weather History & Observations

Time (CDT) Temp. Heat Index Dew Point Humidity Pressure Visibility Wind Dir Wind Speed Gust Speed Precip Events Conditions
12:36 AM 69.1 °F - 66.0 °F 90% 29.90 in 4.0 mi NNE 3.5 mph - N/A   Mostly Cloudy
12:53 AM 69.1 °F - 64.9 °F 87% 29.88 in 5.0 mi North 3.5 mph - N/A   Overcast
1:02 AM 69.1 °F - 64.9 °F 87% 29.89 in 5.0 mi Calm Calm - N/A   Overcast
1:53 AM 69.1 °F - 64.9 °F 87% 29.88 in 4.0 mi NNE 3.5 mph - N/A   Overcast
2:08 AM 69.1 °F - 64.9 °F 87% 29.89 in 4.0 mi NNE 3.5 mph - N/A   Mostly Cloudy
2:36 AM 69.1 °F - 64.9 °F 87% 29.89 in 4.0 mi Calm Calm - N/A   Mostly Cloudy
2:53 AM 69.1 °F - 64.9 °F 87% 29.89 in 4.0 mi Calm Calm - N/A   Overcast
3:53 AM 68.0 °F - 64.9 °F 90% 29.88 in 3.0 mi Calm Calm - N/A   Mostly Cloudy
4:29 AM 69.1 °F - 64.9 °F 87% 29.87 in 2.5 mi Calm Calm - N/A   Overcast
4:53 AM 69.1 °F - 64.9 °F 87% 29.87 in 2.5 mi NE 3.5 mph - N/A   Overcast
4:59 AM 69.1 °F - 64.9 °F 87% 29.88 in 3.0 mi Calm Calm - N/A   Overcast
5:07 AM 69.8 °F - 64.4 °F 83% 29.88 in 2.5 mi NE 3.5 mph - N/A   Overcast
5:24 AM 69.1 °F - 64.9 °F 87% 29.90 in 3.0 mi North 6.9 mph - N/A   Overcast
5:53 AM 69.1 °F - 64.9 °F 87% 29.91 in 3.0 mi North 4.6 mph - N/A   Overcast
6:06 AM 69.1 °F - 64.9 °F 87% 29.91 in 2.0 mi NE 6.9 mph - N/A   Overcast
6:42 AM 70.0 °F - 64.9 °F 84% 29.93 in 2.5 mi NNE 4.6 mph - N/A   Haze
6:53 AM 70.0 °F - 64.9 °F 84% 29.92 in 2.0 mi Calm Calm - N/A   Haze
7:41 AM 70.0 °F - 64.9 °F 84% 29.95 in 2.5 mi NNE 5.8 mph - N/A   Haze
7:50 AM 69.8 °F - 64.4 °F 83% 29.95 in 2.5 mi NE 5.8 mph - N/A   Haze
7:53 AM 70.0 °F - 64.9 °F 84% 29.94 in 2.5 mi NNE 8.1 mph - N/A   Haze
8:03 AM 70.0 °F - 64.9 °F 84% 29.95 in 2.5 mi NNE 6.9 mph - N/A   Haze
8:35 AM 71.1 °F - 64.9 °F 81% 29.94 in 3.0 mi North 3.5 mph - N/A   Haze
8:53 AM 71.1 °F - 66.0 °F 84% 29.93 in 3.0 mi NNE 5.8 mph - N/A   Haze
9:31 AM 73.0 °F - 66.0 °F 79% 29.94 in 3.0 mi NNE 6.9 mph - N/A   Haze
10:43 AM 75.9 °F - 66.9 °F 74% 29.93 in 4.0 mi ENE 6.9 mph - N/A   Haze
10:53 AM 78.1 °F - 68.0 °F 71% 29.92 in 4.0 mi Variable 5.8 mph - N/A   Haze
11:14 AM 78.1 °F - 68.0 °F 71% 29.95 in 5.0 mi NNE 5.8 mph - N/A   Haze
11:36 AM 79.0 °F - 66.9 °F 66% 29.96 in 6.0 mi Variable 4.6 mph - N/A   Haze
11:53 AM 80.1 °F 82.3 °F 66.9 °F 64% 29.95 in 6.0 mi Variable 5.8 mph - N/A   Haze
12:53 PM 78.1 °F - 66.0 °F 66% 29.94 in 6.0 mi East 3.5 mph - N/A   Haze
1:40 PM 79.0 °F - 66.9 °F 66% 29.93 in 7.0 mi NE 5.8 mph - N/A   Overcast
1:53 PM 80.1 °F 82.3 °F 66.9 °F 64% 29.91 in 7.0 mi ENE 8.1 mph - N/A   Overcast
2:31 PM 79.0 °F - 66.9 °F 66% 29.91 in 6.0 mi East 4.6 mph - N/A   Haze
2:53 PM 80.1 °F 82.3 °F 66.9 °F 64% 29.90 in 6.0 mi ENE 5.8 mph - N/A   Haze
3:53 PM 80.1 °F 82.3 °F 66.9 °F 64% 29.89 in 5.0 mi Calm Calm - N/A   Haze
4:53 PM 78.1 °F - 68.0 °F 71% 29.90 in 5.0 mi East 3.5 mph - N/A   Haze
5:42 PM 78.1 °F - 70.0 °F 76% 29.89 in 4.0 mi Calm Calm - N/A Thunderstorm Haze
5:53 PM 78.1 °F - 69.1 °F 74% 29.88 in 4.0 mi Calm Calm - N/A   Haze
6:11 PM 73.0 °F - 63.0 °F 71% 29.89 in 7.0 mi SSW 6.9 mph - N/A   Overcast
6:32 PM 73.0 °F - 63.0 °F 71% 29.88 in 10.0 mi Calm Calm - 0.00 in Rain Light Rain
6:53 PM 72.0 °F - 64.0 °F 76% 29.86 in 10.0 mi SSE 8.1 mph - 0.00 in   Scattered Clouds
7:53 PM 73.0 °F - 66.0 °F 79% 29.86 in 10.0 mi Calm Calm - N/A   Clear
8:53 PM 71.1 °F - 64.9 °F 81% 29.89 in 10.0 mi SSW 5.8 mph - N/A   Overcast
9:53 PM 69.1 °F - 64.9 °F 87% 29.91 in 10.0 mi Calm Calm - N/A   Scattered Clouds
10:53 PM 69.1 °F - 64.9 °F 87% 29.91 in 10.0 mi South 3.5 mph - N/A   Clear
11:04 PM 68.0 °F - 64.0 °F 87% 29.92 in 10.0 mi SW 3.5 mph - N/A   Partly Cloudy
11:53 PM 68.0 °F - 64.0 °F 87% 29.91 in 10.0 mi SW 4.6 mph - N/A   Mostly Cloudy